Weather History for Austin, MN

Change the Weather History Date:

Tuesday, May 14, 2013

  Actual Average Record
Temperature  
Mean Temperature 72 °F -  
Max Temperature 98 °F 64 °F 98 °F (2013)
Min Temperature 46 °F 45 °F 33 °F (2000)
Cooling Degree Days 7    
Growing Degree Days 22 (Base 50)    
Moisture  
Dew Point 41 °F    
Average Humidity 39    
Maximum Humidity 87    
Minimum Humidity 9    
Precipitation  
Precipitation 0.00 in - - ()
Sea Level Pressure  
Sea Level Pressure 29.65 in    
Wind  
Wind Speed 9 mph (SW)    
Max Wind Speed 24 mph    
Max Gust Speed 39 mph    
Visibility 10 miles    
Events Thunderstorm    
Averages and records for this station are not official NWS values.
T = Trace of Precipitation, MM = Missing Value Source: NWS Daily Summary

Daily Weather History Graph

Daily Weather History Graph

Search for Another Location

Airport:

Trip Planner

Search our weather history database for the weather conditions in past years. The results will help you decide how hot, cold, wet, or windy it might be!

Date:

Astronomy

May. 14, 2013 Rise Set
Actual Time 5:47 AM CDT 8:29 PM CDT
Civil Twilight 5:14 AM CDT 9:02 PM CDT
Nautical Twilight 4:32 AM CDT 9:44 PM CDT
Astronomical Twilight 3:45 AM CDT 10:32 PM CDT
Moon 9:27 AM CDT (5/14) No Moon Set
Length of Visible Light 15h 48m
Length of Day
14h 42m
Waxing Crescent, 19% of the Moon is Illuminated
May 14
Waxing Crescent
May 17
First Quarter
May 24
Full
May 31
Last Quarter
Jun 8
New

Hourly Weather History & Observations

Time (CDT) Temp. Windchill Dew Point Humidity Pressure Visibility Wind Dir Wind Speed Gust Speed Precip Events Conditions
12:15 AM 59.0 °F - 44.6 °F 59% 29.75 in 10.0 mi South 10.4 mph - N/A   Clear
12:36 AM 57.2 °F - 46.4 °F 67% 29.75 in 10.0 mi South 8.1 mph - N/A   Clear
12:55 AM 57.2 °F - 46.4 °F 67% 29.74 in 10.0 mi South 9.2 mph - N/A   Clear
1:15 AM 55.4 °F - 46.4 °F 72% 29.74 in 10.0 mi South 8.1 mph - N/A   Clear
1:36 AM 55.4 °F - 46.4 °F 72% 29.73 in 10.0 mi South 9.2 mph - N/A   Clear
1:55 AM 55.4 °F - 46.4 °F 72% 29.73 in 10.0 mi South 9.2 mph - N/A   Clear
2:15 AM 55.4 °F - 46.4 °F 72% 29.73 in 10.0 mi South 6.9 mph - N/A   Clear
2:36 AM 53.6 °F - 46.4 °F 77% 29.73 in 10.0 mi SSW 4.6 mph - N/A   Clear
2:55 AM 55.4 °F - 46.4 °F 72% 29.73 in 10.0 mi South 3.5 mph - N/A   Clear
3:15 AM 55.4 °F - 46.4 °F 72% 29.73 in 10.0 mi South 4.6 mph - N/A   Clear
3:36 AM 55.4 °F - 46.4 °F 72% 29.73 in 10.0 mi South 4.6 mph - N/A   Clear
3:55 AM 53.6 °F - 46.4 °F 77% 29.73 in 10.0 mi SSW 3.5 mph - N/A   Clear
4:16 AM 55.4 °F - 46.4 °F 72% 29.73 in 10.0 mi SSW 3.5 mph - N/A   Clear
4:35 AM 55.4 °F - 46.4 °F 72% 29.73 in 10.0 mi Calm Calm - N/A   Clear
4:56 AM 53.6 °F - 46.4 °F 77% 29.73 in 10.0 mi Calm Calm - N/A   Clear
5:16 AM 51.8 °F - 44.6 °F 76% 29.73 in 10.0 mi Calm Calm - N/A   Clear
5:36 AM 50.0 °F - 44.6 °F 82% 29.72 in 10.0 mi Calm Calm - N/A   Clear
5:55 AM 48.2 °F - 44.6 °F 87% 29.72 in 10.0 mi SE 3.5 mph - N/A   Clear
6:16 AM 46.4 °F 45.2 °F 42.8 °F 87% 29.73 in 10.0 mi SSW 3.5 mph - N/A   Clear
6:35 AM 51.8 °F - 46.4 °F 82% 29.73 in 10.0 mi Calm Calm - N/A   Clear
6:56 AM 53.6 °F - 46.4 °F 77% 29.73 in 10.0 mi South 5.8 mph - N/A   Clear
7:15 AM 55.4 °F - 48.2 °F 77% 29.73 in 10.0 mi Calm Calm - N/A   Clear
7:36 AM 57.2 °F - 48.2 °F 72% 29.72 in 10.0 mi SSW 4.6 mph - N/A   Clear
7:55 AM 60.8 °F - 50.0 °F 68% 29.72 in 10.0 mi Calm Calm - N/A   Clear
8:16 AM 62.6 °F - 51.8 °F 68% 29.72 in 10.0 mi Calm Calm - N/A   Clear
8:36 AM 64.4 °F - 51.8 °F 64% 29.72 in 10.0 mi South 3.5 mph - N/A   Clear
8:55 AM 68.0 °F - 51.8 °F 56% 29.72 in 10.0 mi South 6.9 mph - N/A   Clear
9:15 AM 69.8 °F - 51.8 °F 53% 29.72 in 10.0 mi SSW 8.1 mph - N/A   Clear
9:36 AM 73.4 °F - 53.6 °F 50% 29.71 in 10.0 mi SSW 9.2 mph - N/A   Clear
9:55 AM 75.2 °F - 51.8 °F 44% 29.71 in 10.0 mi South 11.5 mph - N/A   Clear
10:15 AM 77.0 °F - 50.0 °F 39% 29.71 in 10.0 mi SSW 11.5 mph - N/A   Clear
10:36 AM 80.6 °F - 50.0 °F 34% 29.69 in 10.0 mi South 11.5 mph - N/A   Clear
10:55 AM 82.4 °F - 46.4 °F 28% 29.68 in 10.0 mi South 12.7 mph - N/A   Clear
11:15 AM 82.4 °F - 46.4 °F 28% 29.68 in 10.0 mi South 15.0 mph - N/A   Clear
11:36 AM 84.2 °F - 48.2 °F 29% 29.68 in 10.0 mi South 10.4 mph - N/A   Clear
11:55 AM 87.8 °F - 44.6 °F 22% 29.67 in 10.0 mi South 17.3 mph - N/A   Clear
12:15 PM 87.8 °F - 42.8 °F 21% 29.67 in 10.0 mi South 16.1 mph 20.7 mph N/A   Clear
12:36 PM 87.8 °F - 42.8 °F 21% 29.66 in 10.0 mi South 11.5 mph - N/A   Clear
12:56 PM 89.6 °F - 42.8 °F 20% 29.66 in 10.0 mi South 11.5 mph 17.3 mph N/A   Clear
1:15 PM 91.4 °F - 39.2 °F 16% 29.64 in 10.0 mi SSE 10.4 mph 19.6 mph N/A   Clear
1:36 PM 91.4 °F - 35.6 °F 14% 29.62 in 10.0 mi South 16.1 mph 24.2 mph N/A   Clear
1:56 PM 91.4 °F - 39.2 °F 16% 29.60 in 10.0 mi South 15.0 mph 20.7 mph N/A   Clear
2:15 PM 93.2 °F - 39.2 °F 15% 29.58 in 10.0 mi South 23.0 mph 29.9 mph N/A   Clear
2:36 PM 95.0 °F - 42.8 °F 16% 29.57 in 10.0 mi SSW 19.6 mph 28.8 mph N/A   Clear
2:56 PM 93.2 °F - 42.8 °F 17% 29.54 in 10.0 mi South 20.7 mph 28.8 mph N/A   Clear
3:15 PM 93.2 °F - 42.8 °F 17% 29.52 in 10.0 mi SSW 24.2 mph 32.2 mph N/A   Clear
3:36 PM 95.0 °F - 37.4 °F 13% 29.51 in 10.0 mi SW 18.4 mph 27.6 mph N/A   Clear
3:55 PM 96.8 °F - 33.8 °F 11% 29.50 in 10.0 mi WSW 17.3 mph 25.3 mph N/A Thunderstorm Clear
4:15 PM 98.6 °F - 32.0 °F 10% 29.49 in 10.0 mi WSW 20.7 mph 39.1 mph N/A   Clear
4:36 PM 98.6 °F - 33.8 °F 10% 29.49 in 10.0 mi West 16.1 mph 32.2 mph N/A   Clear
4:55 PM 96.8 °F - 37.4 °F 13% 29.49 in 10.0 mi WNW 20.7 mph 35.7 mph N/A   Clear
5:16 PM 96.8 °F - 35.6 °F 12% 29.49 in 10.0 mi WNW 20.7 mph 28.8 mph N/A   Clear
5:35 PM 96.8 °F - 33.8 °F 11% 29.50 in 10.0 mi WNW 18.4 mph 34.5 mph N/A   Clear
5:55 PM 96.8 °F - 35.6 °F 12% 29.51 in 10.0 mi WNW 16.1 mph 25.3 mph N/A   Clear
6:16 PM 95.0 °F - 26.6 °F 9% 29.52 in 10.0 mi NW 17.3 mph 26.5 mph N/A   Clear
6:35 PM 93.2 °F - 33.8 °F 12% 29.53 in 10.0 mi NW 16.1 mph 27.6 mph N/A   Clear
6:56 PM 91.4 °F - 32.0 °F 12% 29.54 in 10.0 mi NW 19.6 mph 24.2 mph N/A   Clear
7:16 PM 91.4 °F - 30.2 °F 11% 29.55 in 10.0 mi NW 19.6 mph 26.5 mph N/A   Clear
7:35 PM 89.6 °F - 32.0 °F 13% 29.56 in 10.0 mi NW 12.7 mph 17.3 mph N/A   Clear
7:56 PM 87.8 °F - 33.8 °F 15% 29.57 in 10.0 mi NW 10.4 mph - N/A   Clear
8:16 PM 84.2 °F - 33.8 °F 16% 29.59 in 10.0 mi NW 12.7 mph - N/A   Clear
8:36 PM 84.2 °F - 33.8 °F 16% 29.60 in 10.0 mi NW 11.5 mph - N/A   Clear
8:55 PM 82.4 °F - 28.4 °F 14% 29.61 in 10.0 mi NW 16.1 mph 23.0 mph N/A   Clear
9:16 PM 80.6 °F - 26.6 °F 14% 29.62 in 10.0 mi NW 13.8 mph - N/A   Clear
9:35 PM 78.8 °F - 26.6 °F 15% 29.64 in 10.0 mi NW 10.4 mph - N/A   Clear
9:56 PM 75.2 °F - 28.4 °F 18% 29.65 in 10.0 mi NW 8.1 mph - N/A   Clear
10:16 PM 75.2 °F - 28.4 °F 18% 29.66 in 10.0 mi WNW 6.9 mph - N/A   Clear
10:35 PM 73.4 °F - 28.4 °F 19% 29.66 in 10.0 mi WNW 10.4 mph - N/A   Clear
10:56 PM 73.4 °F - 26.6 °F 18% 29.67 in 10.0 mi WNW 10.4 mph - N/A   Clear
11:16 PM 71.6 °F - 28.4 °F 20% 29.67 in 10.0 mi WNW 9.2 mph - N/A   Clear
11:35 PM 71.6 °F - 28.4 °F 20% 29.68 in 10.0 mi WNW 11.5 mph 21.9 mph N/A   Clear
11:56 PM 71.6 °F - 28.4 °F 20% 29.70 in 10.0 mi WNW 12.7 mph 18.4 mph N/A   Clear